Time,TemperatureF,DewpointF,PressureIn,WindDirection,WindDirectionDegrees,WindSpeedMPH,WindSpeedGustMPH,Humidity,HourlyPrecipIn,Conditions,Clouds,dailyrainin,SolarRadiationWatts/m^2,SoftwareType,DateUTC
2013-05-27 02:01:00,69.0,46.2,29.92,NNW,335,4.0,6.0,44,0.00,,,0.00,0,Wunderground v.1.15,2013-05-26 23:01:00,
2013-05-27 02:26:00,68.8,46.6,29.92,NNW,347,3.0,3.0,45,0.00,,,0.00,0,Wunderground v.1.15,2013-05-26 23:26:00,
2013-05-27 03:41:00,68.0,44.0,29.92,North,360,2.0,2.0,42,0.00,,,0.00,0,Wunderground v.1.15,2013-05-27 00:41:00,
2013-05-27 04:11:00,67.9,42.7,29.91,NW,320,6.0,7.0,40,0.00,,,0.00,0,Wunderground v.1.15,2013-05-27 01:11:00,
2013-05-27 04:56:00,67.2,45.1,29.92,NNW,330,2.0,3.0,45,0.00,,,0.00,0,Wunderground v.1.15,2013-05-27 01:56:00,
2013-05-27 05:11:00,67.0,44.9,29.92,NNW,331,1.0,1.0,45,0.00,,,0.00,0,Wunderground v.1.15,2013-05-27 02:11:00,
2013-05-27 07:21:00,68.1,45.4,29.94,NNW,331,1.0,1.0,44,0.00,,,0.00,148,Wunderground v.1.15,2013-05-27 04:21:00,
2013-05-27 07:36:00,68.7,44.0,29.94,NNW,331,1.0,1.0,41,0.00,,,0.00,188,Wunderground v.1.15,2013-05-27 04:36:00,
2013-05-27 09:21:00,71.0,42.7,29.95,NNW,343,3.0,3.0,36,0.00,,,0.00,501,Wunderground v.1.15,2013-05-27 06:21:00,
2013-05-27 11:41:00,73.1,43.1,29.97,WNW,292,5.0,5.0,34,0.00,,,0.00,856,Wunderground v.1.15,2013-05-27 08:41:00,
2013-05-27 12:21:00,74.3,49.1,29.97,WNW,285,2.0,2.0,41,0.00,,,0.00,902,Wunderground v.1.15,2013-05-27 09:21:00,
2013-05-27 13:16:00,74.8,48.2,29.97,West,281,2.0,5.0,39,0.00,,,0.00,937,Wunderground v.1.15,2013-05-27 10:16:00,
2013-05-27 13:26:00,74.2,49.0,29.97,West,260,4.0,5.0,41,0.00,,,0.00,940,Wunderground v.1.15,2013-05-27 10:26:00,
2013-05-27 14:26:00,76.7,45.4,29.96,WSW,252,2.0,5.0,33,0.00,,,0.00,919,Wunderground v.1.15,2013-05-27 11:26:00,
2013-05-27 14:36:00,76.8,47.1,29.96,WSW,251,3.0,4.0,35,0.00,,,0.00,911,Wunderground v.1.15,2013-05-27 11:36:00,
2013-05-27 14:46:00,76.9,48.6,29.96,WSW,250,3.0,3.0,37,0.00,,,0.00,898,Wunderground v.1.15,2013-05-27 11:46:00,
2013-05-27 14:56:00,77.4,46.0,29.96,WSW,249,2.0,2.0,33,0.00,,,0.00,888,Wunderground v.1.15,2013-05-27 11:56:00,
2013-05-27 15:31:00,76.8,49.3,29.95,SW,234,2.0,2.0,38,0.00,,,0.00,835,Wunderground v.1.15,2013-05-27 12:31:00,
2013-05-27 20:31:00,70.6,53.6,29.93,SSW,207,2.0,4.0,55,0.00,,,0.00,9,Wunderground v.1.15,2013-05-27 17:31:00,
2013-05-27 22:00:00,69.4,53.0,29.96,SSW,207,1.0,1.0,56,0.00,,,0.00,0,Wunderground v.1.15,2013-05-27 19:00:00,